NTR430 AGGH-NSFA

Flight info

Callsign NTR430
Flight time N/A
Altitude 23000
Route RAXUD1P VAKRO B452 NN R453 UVUTI UVUTI2B
Aircraft AT76/M-SDFGIRY/S

Departure

Time 2026-05-08 08:46
Airport Honiara International Airport (AGGH)

Arrival

Time N/A
Airport Faleolo International Airport (NSFA)
Time Latitude Longitude Altitude Speed Heading
2026-05-08 08:38 -9.42933 160.04817 36 ft 0 kts 68°
2026-05-08 08:43 -9.42921 160.04854 36 ft 14 kts 79°
2026-05-08 08:43 -9.42925 160.04953 35 ft 14 kts 111°
2026-05-08 08:44 -9.43004 160.04971 34 ft 15 kts 230°
2026-05-08 08:44 -9.43042 160.04893 34 ft 22 kts 246°
2026-05-08 08:44 -9.43112 160.04728 35 ft 28 kts 247°
2026-05-08 08:44 -9.43180 160.04603 37 ft 10 kts 212°
2026-05-08 08:45 -9.43197 160.04556 38 ft 6 kts 337°
2026-05-08 08:45 -9.43169 160.04578 38 ft 7 kts 44°
2026-05-08 08:45 -9.43146 160.04617 37 ft 7 kts 71°
2026-05-08 08:45 -9.43048 160.04866 34 ft 68 kts 68°
2026-05-08 08:46 -9.42803 160.05486 32 ft 120 kts 69°
2026-05-08 08:46 -9.42448 160.06371 244 ft 140 kts 67°
2026-05-08 08:46 -9.42063 160.07266 740 ft 140 kts 66°
2026-05-08 08:46 -9.41603 160.08171 1148 ft 147 kts 70°
2026-05-08 08:47 -9.41220 160.09196 1464 ft 170 kts 72°
2026-05-08 08:47 -9.40838 160.10402 1694 ft 183 kts 81°
2026-05-08 08:47 -9.41082 160.11651 2099 ft 183 kts 114°
2026-05-08 08:47 -9.41646 160.12799 2667 ft 182 kts 118°
2026-05-08 08:48 -9.42272 160.13921 3203 ft 184 kts 119°
2026-05-08 08:48 -9.42910 160.15052 3719 ft 186 kts 118°
2026-05-08 08:48 -9.43534 160.16188 4346 ft 188 kts 118°
2026-05-08 08:48 -9.44176 160.17357 4926 ft 190 kts 118°
2026-05-08 08:49 -9.44813 160.18540 5464 ft 192 kts 117°
2026-05-08 08:49 -9.45447 160.19739 6093 ft 194 kts 117°
2026-05-08 08:49 -9.46092 160.20953 6676 ft 197 kts 117°
2026-05-08 08:49 -9.46745 160.22178 7175 ft 199 kts 117°
2026-05-08 08:50 -9.47405 160.23417 7737 ft 201 kts 116°
2026-05-08 08:50 -9.48079 160.24667 8254 ft 203 kts 116°
2026-05-08 08:50 -9.48754 160.25930 8776 ft 204 kts 115°
2026-05-08 08:50 -9.49430 160.27204 9320 ft 206 kts 115°
2026-05-08 08:51 -9.50110 160.28491 9826 ft 208 kts 114°
2026-05-08 08:51 -9.50796 160.29789 10312 ft 209 kts 114°
2026-05-08 08:51 -9.51464 160.31058 10766 ft 211 kts 114°
2026-05-08 08:51 -9.52168 160.32392 11248 ft 212 kts 115°
2026-05-08 08:52 -9.52868 160.33713 11720 ft 213 kts 115°
2026-05-08 08:52 -9.53571 160.35041 12180 ft 215 kts 115°
2026-05-08 08:52 -9.54278 160.36384 12631 ft 217 kts 115°
2026-05-08 08:52 -9.54992 160.37734 13083 ft 218 kts 115°
2026-05-08 08:53 -9.55711 160.39096 13522 ft 220 kts 115°
2026-05-08 08:53 -9.56435 160.40467 13926 ft 221 kts 115°
2026-05-08 08:53 -9.57162 160.41845 14316 ft 222 kts 115°
2026-05-08 08:53 -9.57892 160.43228 14689 ft 224 kts 115°
2026-05-08 08:54 -9.58628 160.44622 15060 ft 225 kts 115°
2026-05-08 08:54 -9.59369 160.46027 15426 ft 226 kts 115°
2026-05-08 08:54 -9.60112 160.47434 15792 ft 227 kts 115°
2026-05-08 08:54 -9.60860 160.48852 16155 ft 228 kts 115°
2026-05-08 08:55 -9.61610 160.50274 16495 ft 230 kts 115°
2026-05-08 08:55 -9.62365 160.51705 16842 ft 231 kts 115°
2026-05-08 08:55 -9.63125 160.53145 17174 ft 232 kts 115°
2026-05-08 08:55 -9.63887 160.54591 17499 ft 233 kts 115°
2026-05-08 08:56 -9.64651 160.56042 17832 ft 234 kts 115°
2026-05-08 08:56 -9.65422 160.57505 18158 ft 236 kts 115°
2026-05-08 08:56 -9.66197 160.58974 18423 ft 237 kts 115°
2026-05-08 08:56 -9.66976 160.60451 18693 ft 238 kts 115°
2026-05-08 08:57 -9.67760 160.61940 18946 ft 239 kts 115°
2026-05-08 08:57 -9.68546 160.63433 19196 ft 241 kts 115°
2026-05-08 08:57 -9.69337 160.64931 19445 ft 242 kts 115°
2026-05-08 08:57 -9.70128 160.66438 19691 ft 243 kts 115°
2026-05-08 08:58 -9.70926 160.67951 19925 ft 244 kts 115°
2026-05-08 08:58 -9.71728 160.69472 20154 ft 245 kts 115°
2026-05-08 08:58 -9.72533 160.71002 20381 ft 246 kts 115°
2026-05-08 08:58 -9.73339 160.72537 20606 ft 247 kts 115°
2026-05-08 08:59 -9.74151 160.74077 20817 ft 248 kts 116°
2026-05-08 08:59 -9.74965 160.75622 21032 ft 249 kts 116°
2026-05-08 08:59 -9.75771 160.77156 21243 ft 250 kts 116°
2026-05-08 08:59 -9.76591 160.78713 21453 ft 251 kts 116°
2026-05-08 09:00 -9.77415 160.80279 21656 ft 252 kts 116°
2026-05-08 09:00 -9.78243 160.81853 21849 ft 253 kts 116°
2026-05-08 09:00 -9.79073 160.83430 22035 ft 254 kts 116°
2026-05-08 09:00 -9.79905 160.85014 22211 ft 255 kts 116°
2026-05-08 09:01 -9.80742 160.86607 22365 ft 257 kts 116°
2026-05-08 09:01 -9.81582 160.88203 22553 ft 257 kts 116°
2026-05-08 09:01 -9.82424 160.89804 22714 ft 257 kts 116°
2026-05-08 09:01 -9.83270 160.91416 22807 ft 261 kts 116°
2026-05-08 09:02 -9.84131 160.93051 22848 ft 265 kts 116°
2026-05-08 09:02 -9.85009 160.94715 22868 ft 270 kts 116°
2026-05-08 09:02 -9.85863 160.96424 22882 ft 274 kts 114°
2026-05-08 09:02 -9.86668 160.98185 22883 ft 277 kts 112°
2026-05-08 09:03 -9.87466 160.99976 22886 ft 280 kts 113°
2026-05-08 09:03 -9.88280 161.01782 22883 ft 283 kts 113°
2026-05-08 09:03 -9.89108 161.03597 22885 ft 285 kts 113°
2026-05-08 09:03 -9.89940 161.05429 22887 ft 287 kts 113°
2026-05-08 09:04 -9.90776 161.07270 22885 ft 288 kts 113°
2026-05-08 09:04 -9.91617 161.09120 22887 ft 290 kts 113°
2026-05-08 09:04 -9.92459 161.10981 22888 ft 291 kts 113°
2026-05-08 09:04 -9.93305 161.12843 22886 ft 291 kts 113°
2026-05-08 09:05 -9.94152 161.14714 22882 ft 292 kts 113°
2026-05-08 09:05 -9.94991 161.16561 22882 ft 293 kts 113°
2026-05-08 09:05 -9.95842 161.18439 22881 ft 293 kts 113°
2026-05-08 09:05 -9.96695 161.20320 22884 ft 293 kts 113°
2026-05-08 09:06 -9.97546 161.22198 22886 ft 294 kts 113°
2026-05-08 09:06 -9.98399 161.24080 22882 ft 294 kts 113°
2026-05-08 09:06 -9.99254 161.25969 22884 ft 294 kts 113°
2026-05-08 09:06 -10.00109 161.27854 22884 ft 294 kts 113°
2026-05-08 09:07 -10.00962 161.29739 22884 ft 294 kts 113°
2026-05-08 09:07 -10.01819 161.31630 22885 ft 295 kts 113°
2026-05-08 09:07 -10.02674 161.33518 22885 ft 295 kts 113°
2026-05-08 09:07 -10.03529 161.35410 22888 ft 295 kts 113°
2026-05-08 09:08 -10.04383 161.37295 22888 ft 292 kts 113°
2026-05-08 09:08 -10.05226 161.39163 22888 ft 291 kts 113°
2026-05-08 09:08 -10.06069 161.41033 22889 ft 291 kts 113°
2026-05-08 09:08 -10.06916 161.42899 22889 ft 292 kts 113°
2026-05-08 09:09 -10.07766 161.44773 22891 ft 292 kts 113°
2026-05-08 09:09 -10.08612 161.46647 22886 ft 292 kts 113°
2026-05-08 09:09 -10.09461 161.48526 22888 ft 293 kts 113°
2026-05-08 09:09 -10.10310 161.50400 22893 ft 293 kts 113°
2026-05-08 09:10 -10.11161 161.52282 22893 ft 293 kts 113°
2026-05-08 09:10 -10.12011 161.54162 22894 ft 293 kts 113°
2026-05-08 09:10 -10.12864 161.56044 22895 ft 293 kts 113°
2026-05-08 09:10 -10.13715 161.57925 22895 ft 294 kts 112°
2026-05-08 09:11 -10.14545 161.59789 22895 ft 293 kts 112°
2026-05-08 09:11 -10.15391 161.61673 22896 ft 294 kts 113°
2026-05-08 09:11 -10.16241 161.63558 22895 ft 294 kts 113°
2026-05-08 09:11 -10.17090 161.65444 22894 ft 294 kts 112°
2026-05-08 09:12 -10.17938 161.67332 22893 ft 294 kts 113°
2026-05-08 09:12 -10.18788 161.69219 22897 ft 294 kts 113°
2026-05-08 09:12 -10.19636 161.71108 22896 ft 294 kts 113°
2026-05-08 09:12 -10.20485 161.72997 22899 ft 294 kts 113°
2026-05-08 09:13 -10.21333 161.74886 22899 ft 294 kts 113°
2026-05-08 09:13 -10.22181 161.76775 22898 ft 294 kts 113°
2026-05-08 09:13 -10.23031 161.78666 22899 ft 294 kts 112°
2026-05-08 09:13 -10.23879 161.80556 22900 ft 294 kts 113°
2026-05-08 09:14 -10.24727 161.82442 22901 ft 294 kts 113°
2026-05-08 09:14 -10.25574 161.84332 22901 ft 294 kts 113°
2026-05-08 09:14 -10.26423 161.86221 22899 ft 294 kts 113°
2026-05-08 09:14 -10.27270 161.88112 22898 ft 294 kts 112°
2026-05-08 09:15 -10.28117 161.90000 22901 ft 294 kts 112°
2026-05-08 09:15 -10.28966 161.91889 22905 ft 294 kts 112°
2026-05-08 09:15 -10.29815 161.93782 22903 ft 294 kts 112°
2026-05-08 09:15 -10.30660 161.95671 22902 ft 294 kts 112°
2026-05-08 09:16 -10.31508 161.97564 22904 ft 294 kts 113°
2026-05-08 09:16 -10.32356 161.99451 22900 ft 294 kts 112°
2026-05-08 09:16 -10.33202 162.01343 22906 ft 294 kts 112°
2026-05-08 09:16 -10.34049 162.03236 22905 ft 294 kts 112°
2026-05-08 09:17 -10.34896 162.05125 22900 ft 294 kts 112°
2026-05-08 09:17 -10.35720 162.06966 22909 ft 294 kts 112°
2026-05-08 09:17 -10.36581 162.08886 22906 ft 294 kts 112°
2026-05-08 09:17 -10.37424 162.10771 22908 ft 294 kts 112°
2026-05-08 09:18 -10.38275 162.12671 22908 ft 294 kts 112°
2026-05-08 09:18 -10.39123 162.14566 22908 ft 294 kts 112°
2026-05-08 09:18 -10.39969 162.16459 22906 ft 294 kts 112°
2026-05-08 09:18 -10.40815 162.18351 22905 ft 294 kts 113°
2026-05-08 09:19 -10.41664 162.20247 22907 ft 295 kts 112°
2026-05-08 09:19 -10.42509 162.22139 22907 ft 295 kts 113°
2026-05-08 09:19 -10.43359 162.24036 22909 ft 295 kts 113°
2026-05-08 09:19 -10.44206 162.25935 22907 ft 295 kts 113°
2026-05-08 09:20 -10.45054 162.27832 22907 ft 295 kts 113°
2026-05-08 09:20 -10.45902 162.29730 22910 ft 295 kts 112°
2026-05-08 09:20 -10.46750 162.31626 22909 ft 295 kts 112°
2026-05-08 09:20 -10.47598 162.33525 22910 ft 295 kts 112°
2026-05-08 09:21 -10.48445 162.35425 22910 ft 295 kts 112°
2026-05-08 09:21 -10.49293 162.37322 22907 ft 295 kts 113°
2026-05-08 09:22 -10.54372 162.48703 22900 ft 295 kts 112°
2026-05-08 09:23 -10.55229 162.50626 22905 ft 295 kts 112°
2026-05-08 09:23 -10.56075 162.52523 22906 ft 295 kts 112°
2026-05-08 09:23 -10.56922 162.54423 22905 ft 295 kts 112°
2026-05-08 09:23 -10.57758 162.56299 22904 ft 295 kts 112°
2026-05-08 09:24 -10.58605 162.58200 22905 ft 295 kts 112°
2026-05-08 09:24 -10.59453 162.60103 22904 ft 295 kts 113°
2026-05-08 09:24 -10.60299 162.62002 22905 ft 295 kts 112°
2026-05-08 09:24 -10.61143 162.63899 22908 ft 295 kts 112°
2026-05-08 09:25 -10.61988 162.65799 22904 ft 295 kts 113°
2026-05-08 09:25 -10.62834 162.67698 22906 ft 295 kts 112°
2026-05-08 09:25 -10.63678 162.69594 22905 ft 295 kts 112°
2026-05-08 09:25 -10.64527 162.71502 22905 ft 295 kts 112°
2026-05-08 09:26 -10.65369 162.73397 22906 ft 295 kts 112°
2026-05-08 09:26 -10.66216 162.75297 22909 ft 295 kts 112°
2026-05-08 09:26 -10.67061 162.77199 22909 ft 295 kts 112°
2026-05-08 09:26 -10.67903 162.79098 22906 ft 295 kts 112°
2026-05-08 09:27 -10.68748 162.80993 22908 ft 295 kts 112°
2026-05-08 09:27 -10.69592 162.82891 22905 ft 295 kts 112°
2026-05-08 09:27 -10.70436 162.84791 22907 ft 295 kts 112°
2026-05-08 09:27 -10.71278 162.86688 22904 ft 294 kts 112°
2026-05-08 09:28 -10.72111 162.88559 22905 ft 295 kts 113°
2026-05-08 09:28 -10.72954 162.90458 22907 ft 295 kts 113°
2026-05-08 09:28 -10.73797 162.92358 22907 ft 295 kts 112°
2026-05-08 09:28 -10.74640 162.94257 22906 ft 295 kts 112°
2026-05-08 09:29 -10.75482 162.96154 22908 ft 295 kts 112°
2026-05-08 09:29 -10.76326 162.98054 22909 ft 295 kts 113°
2026-05-08 09:29 -10.77171 162.99957 22910 ft 295 kts 112°
2026-05-08 09:29 -10.78012 163.01856 22909 ft 295 kts 112°
2026-05-08 09:30 -10.78855 163.03756 22907 ft 295 kts 112°
2026-05-08 09:30 -10.79698 163.05656 22907 ft 295 kts 112°
2026-05-08 09:30 -10.80541 163.07556 22911 ft 295 kts 113°
2026-05-08 09:30 -10.81098 163.08815 22912 ft 295 kts 113°
2026-05-08 09:31 -10.81942 163.10718 22911 ft 295 kts 113°
2026-05-08 09:31 -10.82784 163.12618 22909 ft 295 kts 113°
2026-05-08 09:31 -10.83626 163.14517 22911 ft 295 kts 112°
2026-05-08 09:31 -10.84467 163.16419 22911 ft 295 kts 112°
2026-05-08 09:32 -10.85310 163.18322 22912 ft 295 kts 112°
2026-05-08 09:32 -10.86151 163.20223 22911 ft 295 kts 112°
2026-05-08 09:32 -10.86992 163.22123 22911 ft 295 kts 113°
2026-05-08 09:32 -10.87835 163.24023 22912 ft 295 kts 113°
2026-05-08 09:33 -10.88674 163.25925 22910 ft 295 kts 113°
2026-05-08 09:33 -10.89518 163.27829 22911 ft 295 kts 113°
2026-05-08 09:33 -10.90357 163.29728 22910 ft 295 kts 113°
2026-05-08 09:33 -10.91201 163.31638 22912 ft 295 kts 113°
2026-05-08 09:34 -10.92043 163.33539 22913 ft 295 kts 113°
2026-05-08 09:34 -10.92873 163.35414 22911 ft 295 kts 113°
2026-05-08 09:34 -10.93713 163.37316 22913 ft 295 kts 113°
2026-05-08 09:34 -10.94556 163.39223 22910 ft 295 kts 112°
2026-05-08 09:35 -10.95396 163.41128 22912 ft 295 kts 112°
2026-05-08 09:35 -10.96236 163.43031 22913 ft 295 kts 113°
2026-05-08 09:35 -10.97078 163.44936 22909 ft 295 kts 113°
2026-05-08 09:35 -10.97919 163.46838 22913 ft 295 kts 113°
2026-05-08 09:36 -10.98762 163.48745 22910 ft 295 kts 113°
2026-05-08 09:36 -10.99587 163.50617 22912 ft 295 kts 112°
2026-05-08 09:36 -11.00430 163.52531 22912 ft 295 kts 112°
2026-05-08 09:36 -11.01270 163.54431 22914 ft 295 kts 113°
2026-05-08 09:37 -11.02109 163.56334 22913 ft 295 kts 113°
2026-05-08 09:37 -11.02949 163.58237 22913 ft 295 kts 113°
2026-05-08 09:37 -11.03788 163.60140 22913 ft 295 kts 113°
2026-05-08 09:37 -11.04627 163.62044 22912 ft 294 kts 113°
2026-05-08 09:38 -11.05466 163.63945 22914 ft 294 kts 113°
2026-05-08 09:38 -11.06304 163.65845 22916 ft 294 kts 113°
2026-05-08 09:38 -11.07140 163.67745 22917 ft 294 kts 113°
2026-05-08 09:38 -11.07977 163.69648 22917 ft 294 kts 113°
2026-05-08 09:39 -11.08815 163.71549 22918 ft 294 kts 113°
2026-05-08 09:39 -11.09654 163.73453 22916 ft 294 kts 113°
2026-05-08 09:39 -11.10491 163.75355 22915 ft 294 kts 113°
2026-05-08 09:39 -11.11329 163.77254 22918 ft 294 kts 113°
2026-05-08 09:40 -11.12166 163.79159 22916 ft 294 kts 113°
2026-05-08 09:40 -11.13001 163.81061 22918 ft 294 kts 113°
2026-05-08 09:40 -11.13826 163.82937 22918 ft 294 kts 113°
2026-05-08 09:40 -11.14665 163.84840 22919 ft 294 kts 113°
2026-05-08 09:41 -11.15498 163.86737 22918 ft 294 kts 112°
2026-05-08 09:41 -11.16336 163.88644 22916 ft 294 kts 113°
2026-05-08 09:41 -11.17172 163.90545 22916 ft 294 kts 112°
2026-05-08 09:41 -11.18009 163.92446 22919 ft 294 kts 113°
2026-05-08 09:42 -11.18845 163.94350 22917 ft 294 kts 113°
2026-05-08 09:42 -11.19679 163.96253 22918 ft 294 kts 113°
2026-05-08 09:42 -11.20509 163.98144 22919 ft 294 kts 113°
2026-05-08 09:42 -11.21350 164.00056 22919 ft 294 kts 113°
2026-05-08 09:43 -11.22187 164.01960 22919 ft 294 kts 113°
2026-05-08 09:43 -11.23017 164.03853 22919 ft 294 kts 113°
2026-05-08 09:43 -11.23857 164.05765 22921 ft 294 kts 113°
2026-05-08 09:43 -11.24692 164.07670 22919 ft 294 kts 113°
2026-05-08 09:44 -11.25526 164.09572 22921 ft 294 kts 113°
2026-05-08 09:44 -11.26363 164.11481 22918 ft 294 kts 112°
2026-05-08 09:44 -11.27199 164.13387 22919 ft 295 kts 112°
2026-05-08 09:44 -11.28035 164.15292 22921 ft 294 kts 112°
2026-05-08 09:45 -11.28873 164.17201 22919 ft 294 kts 112°
2026-05-08 09:45 -11.29706 164.19109 22921 ft 294 kts 112°
2026-05-08 09:45 -11.30531 164.20990 22922 ft 294 kts 113°
2026-05-08 09:45 -11.31366 164.22896 22923 ft 294 kts 112°
2026-05-08 09:46 -11.32199 164.24801 22922 ft 294 kts 112°
2026-05-08 09:46 -11.33033 164.26704 22925 ft 294 kts 112°
2026-05-08 09:46 -11.33869 164.28613 22922 ft 294 kts 112°
2026-05-08 09:46 -11.34700 164.30518 22923 ft 294 kts 112°
2026-05-08 09:47 -11.35535 164.32422 22922 ft 294 kts 112°
2026-05-08 09:47 -11.36370 164.34327 22921 ft 294 kts 112°
2026-05-08 09:47 -11.37204 164.36235 22923 ft 294 kts 112°
2026-05-08 09:47 -11.38038 164.38139 22925 ft 294 kts 112°
2026-05-08 09:48 -11.38867 164.40034 22924 ft 294 kts 112°
2026-05-08 09:48 -11.39701 164.41952 22923 ft 294 kts 112°
2026-05-08 09:48 -11.40537 164.43858 22923 ft 294 kts 112°
2026-05-08 09:48 -11.41370 164.45767 22923 ft 294 kts 112°
2026-05-08 09:49 -11.42201 164.47671 22923 ft 294 kts 112°
2026-05-08 09:49 -11.43024 164.49553 22924 ft 294 kts 112°
2026-05-08 09:49 -11.43856 164.51459 22923 ft 294 kts 112°
2026-05-08 09:49 -11.44688 164.53365 22925 ft 294 kts 112°
2026-05-08 09:50 -11.45523 164.55274 22923 ft 295 kts 112°
2026-05-08 09:50 -11.46355 164.57182 22925 ft 295 kts 112°
2026-05-08 09:50 -11.47186 164.59091 22923 ft 295 kts 112°
2026-05-08 09:50 -11.48019 164.61002 22925 ft 295 kts 112°
2026-05-08 09:51 -11.48847 164.62900 22925 ft 295 kts 112°
2026-05-08 09:51 -11.49689 164.64825 22924 ft 295 kts 112°
2026-05-08 09:51 -11.50520 164.66737 22925 ft 295 kts 112°
2026-05-08 09:51 -11.51355 164.68647 22923 ft 295 kts 112°
2026-05-08 09:52 -11.52189 164.70562 22925 ft 295 kts 112°
2026-05-08 09:52 -11.53020 164.72475 22928 ft 295 kts 112°
2026-05-08 09:52 -11.53853 164.74387 22928 ft 295 kts 112°
2026-05-08 09:52 -11.54687 164.76299 22927 ft 295 kts 112°
2026-05-08 09:53 -11.55521 164.78213 22925 ft 295 kts 112°
2026-05-08 09:53 -11.56351 164.80128 22929 ft 295 kts 112°
2026-05-08 09:53 -11.57185 164.82041 22931 ft 295 kts 112°
2026-05-08 09:53 -11.58018 164.83953 22929 ft 295 kts 112°
2026-05-08 09:54 -11.58852 164.85868 22929 ft 295 kts 112°
2026-05-08 09:54 -11.59686 164.87782 22927 ft 295 kts 112°
2026-05-08 09:54 -11.60518 164.89696 22927 ft 295 kts 112°
2026-05-08 09:54 -11.61351 164.91611 22928 ft 295 kts 112°
2026-05-08 09:55 -11.62183 164.93526 22926 ft 295 kts 112°
2026-05-08 09:55 -11.63007 164.95418 22930 ft 295 kts 112°
2026-05-08 09:55 -11.63840 164.97336 22929 ft 295 kts 112°
2026-05-08 09:55 -11.64671 164.99249 22930 ft 295 kts 112°
2026-05-08 09:56 -11.65498 165.01154 22930 ft 295 kts 112°
2026-05-08 09:56 -11.66330 165.03083 22928 ft 295 kts 112°
2026-05-08 09:56 -11.67152 165.05002 22927 ft 295 kts 112°
2026-05-08 09:56 -11.67969 165.06915 22928 ft 295 kts 111°
2026-05-08 09:57 -11.69625 165.10765 22932 ft 296 kts 112°
2026-05-08 09:57 -11.70454 165.12683 22931 ft 296 kts 111°
2026-05-08 09:57 -11.71284 165.14606 22927 ft 296 kts 112°
2026-05-08 09:58 -11.72113 165.16525 22931 ft 296 kts 112°
2026-05-08 09:58 -11.72934 165.18421 22931 ft 296 kts 112°
2026-05-08 09:58 -11.73764 165.20343 22931 ft 296 kts 112°
2026-05-08 09:58 -11.74607 165.22288 22930 ft 296 kts 112°
2026-05-08 09:59 -11.75441 165.24206 22931 ft 296 kts 112°
2026-05-08 09:59 -11.76263 165.26103 22929 ft 296 kts 112°
2026-05-08 09:59 -11.77095 165.28021 22931 ft 296 kts 112°
2026-05-08 09:59 -11.77925 165.29944 22932 ft 296 kts 112°
2026-05-08 10:00 -11.78756 165.31866 22934 ft 296 kts 112°
2026-05-08 10:00 -11.79582 165.33774 22932 ft 296 kts 112°
2026-05-08 10:00 -11.80415 165.35708 22934 ft 296 kts 112°
2026-05-08 10:00 -11.81251 165.37628 22931 ft 296 kts 112°
2026-05-08 10:01 -11.82085 165.39546 22932 ft 296 kts 112°
2026-05-08 10:01 -11.82918 165.41470 22931 ft 296 kts 112°
2026-05-08 10:01 -11.83750 165.43390 22930 ft 296 kts 112°
2026-05-08 10:01 -11.84585 165.45310 22936 ft 296 kts 112°
2026-05-08 10:02 -11.85423 165.47228 22933 ft 296 kts 112°
2026-05-08 10:02 -11.86258 165.49150 22935 ft 296 kts 112°
2026-05-08 10:02 -11.87089 165.51076 22933 ft 296 kts 112°
2026-05-08 10:02 -11.87917 165.52998 22933 ft 296 kts 112°
2026-05-08 10:03 -11.88748 165.54923 22930 ft 296 kts 112°
2026-05-08 10:03 -11.89581 165.56846 22930 ft 296 kts 111°
2026-05-08 10:03 -11.90413 165.58772 22934 ft 296 kts 112°
2026-05-08 10:03 -11.91243 165.60696 22936 ft 296 kts 111°
2026-05-08 10:04 -11.92071 165.62618 22933 ft 296 kts 112°
2026-05-08 10:04 -11.92899 165.64545 22937 ft 296 kts 112°
2026-05-08 10:04 -11.93727 165.66469 22936 ft 296 kts 112°
2026-05-08 10:04 -11.94560 165.68394 22938 ft 296 kts 112°
2026-05-08 10:05 -11.95389 165.70318 22936 ft 296 kts 112°
2026-05-08 10:05 -11.96220 165.72242 22933 ft 296 kts 112°
2026-05-08 10:05 -11.97047 165.74155 22936 ft 296 kts 112°
2026-05-08 10:05 -11.97868 165.76061 22932 ft 296 kts 112°
2026-05-08 10:06 -11.98696 165.77988 22935 ft 296 kts 112°
2026-05-08 10:06 -11.99522 165.79910 22935 ft 296 kts 112°
2026-05-08 10:06 -12.00348 165.81835 22940 ft 296 kts 112°